AI5BL Weather Reports


Display with metric or nautical units.
time (UTC)temp
F
wind
direction
speed
MPH
gust
MPH
rain 1hr
in
rain 24hr
in
rain mn
in
humidity
%
barometer
mb
20260906110943 75 77 0.0 0.0 0.00 0.00 0.00 99 1015.2
20260906110439 75 77 0.0 0.0 0.00 0.00 0.00 99 1015.1
20260906105937 75 77 0.0 0.0 0.00 0.00 0.00 99 1015.1
20260906105433 74 77 0.0 0.0 0.00 0.00 0.00 99 1015.0
20260906104930 74 76 0.0 0.0 0.00 0.00 0.00 99 1015.0
20260906104428 75 76 0.0 0.0 0.00 0.00 0.00 99 1014.8
20260906103927 75 80 0.0 0.0 0.00 0.00 0.00 99 1015.0
20260906103426 75 80 0.0 0.0 0.00 0.00 0.00 99 1014.8
20260906102921 75 81 0.0 0.0 0.00 0.00 0.00 99 1014.8
20260906102421 75 81 0.0 0.0 0.00 0.00 0.00 99 1014.8
20260906101915 75 74 0.0 0.0 0.00 0.00 0.00 99 1014.8
20260906101411 75 72 0.0 0.0 0.00 0.00 0.00 99 1014.8
20260906100906 75 81 0.0 0.0 0.00 0.00 0.00 99 1014.8
20260906100406 75 81 0.0 0.0 0.00 0.00 0.00 99 1014.8
20260906095901 75 81 0.0 0.0 0.00 0.00 0.00 99 1014.7
20260906095356 75 81 0.0 0.0 0.00 0.00 0.00 99 1014.7
20260906094855 75 84 0.0 0.0 0.00 0.00 0.00 99 1014.8
20260906094351 75 84 0.0 0.0 0.00 0.00 0.00 99 1014.6
20260906093847 75 85 0.0 0.0 0.00 0.00 0.00 99 1014.5
20260906093343 75 85 0.0 0.0 0.00 0.00 0.00 99 1014.4
20260906092843 75 85 0.0 0.0 0.00 0.00 0.00 99 1014.3
20260906092337 75 86 0.0 0.0 0.00 0.00 0.00 99 1014.5
20260906091833 75 81 0.0 0.0 0.00 0.00 0.00 99 1014.5
20260906091329 75 81 0.0 0.0 0.00 0.00 0.00 99 1014.5
20260906090826 75 81 0.0 0.0 0.00 0.00 0.00 99 1014.4
20260906090324 74 81 0.0 0.0 0.00 0.00 0.00 99 1014.4
20260906085818 74 81 0.0 0.0 0.00 0.00 0.00 99 1014.4
20260906085317 74 81 0.0 0.0 0.00 0.00 0.00 99 1014.3
20260906084812 74 81 0.0 0.0 0.00 0.00 0.00 99 1014.4
20260906084312 74 81 0.0 0.0 0.00 0.00 0.00 99 1014.2
20260906083807 74 81 0.0 0.0 0.00 0.00 0.00 99 1014.4
20260906083302 74 81 0.0 0.0 0.00 0.00 0.00 99 1014.3
20260906082757 74 81 0.0 0.0 0.00 0.00 0.00 99 1014.3
20260906082252 74 81 0.0 0.0 0.00 0.00 0.00 99 1014.2
20260906081748 75 81 0.0 0.0 0.00 0.00 0.00 99 1014.2
20260906081243 75 81 0.0 0.0 0.00 0.00 0.00 99 1014.3
20260906080739 75 81 0.0 0.0 0.00 0.00 0.00 98 1014.2
20260906080236 75 78 0.0 0.0 0.00 0.00 0.00 98 1014.1
20260906075730 75 78 0.0 0.0 0.00 0.00 0.00 98 1014.0
20260906075229 75 79 0.0 0.0 0.00 0.00 0.00 98 1014.0
20260906074725 75 81 0.0 0.0 0.00 0.00 0.00 98 1014.0
20260906074224 75 86 0.0 0.0 0.00 0.00 0.00 98 1013.7
20260906073719 75 87 0.0 0.0 0.00 0.00 0.00 98 1013.8
20260906073214 76 87 0.0 0.0 0.00 0.00 0.00 98 1014.0
20260906072709 76 87 0.0 0.0 0.00 0.00 0.00 98 1014.0
20260906072205 76 87 0.0 0.0 0.00 0.00 0.00 98 1014.0
20260906071701 75 85 0.0 0.0 0.00 0.00 0.00 98 1014.0
20260906071200 75 85 0.0 0.0 0.00 0.00 0.00 98 1014.0
20260906070657 76 86 0.0 0.0 0.00 0.00 0.00 98 1014.0
20260906070153 76 87 0.0 0.0 0.00 0.00 0.00 98 1014.1
20260906065652 76 87 0.0 0.0 0.00 0.00 0.00 98 1014.0
20260906065148 76 88 0.0 0.0 0.00 0.00 0.00 98 1014.0
20260906064643 76 90 0.0 0.0 0.00 0.00 0.00 98 1013.8
20260906064139 76 85 0.0 0.0 0.00 0.00 0.00 98 1014.1
20260906063639 76 85 0.0 0.0 0.00 0.00 0.00 98 1014.1
20260906063135 76 102 0.0 0.0 0.00 0.00 0.00 98 1014.1
20260906062630 76 97 0.0 0.0 0.00 0.00 0.00 98 1013.8
20260906062129 76 101 0.0 0.0 0.00 0.00 0.00 98 1014.1
20260906061625 76 103 0.0 0.0 0.00 0.00 0.00 98 1014.0
20260906061125 76 100 0.0 0.0 0.00 0.00 0.00 98 1014.0
20260906060622 76 90 0.0 0.0 0.00 0.00 0.00 97 1014.0
20260906060119 76 92 0.0 0.0 0.00 0.00 0.00 97 1014.0
20260906055614 76 92 0.0 0.0 0.00 0.00 0.00 97 1014.1
20260906055110 76 98 0.0 0.0 0.00 0.00 0.00 97 1014.2
20260906054610 76 99 0.0 0.0 0.00 0.00 0.00 97 1014.4
20260906054105 76 99 0.0 0.0 0.00 0.00 0.00 97 1014.0
20260906053602 77 99 0.0 0.0 0.00 0.00 0.00 97 1014.1
20260906053057 76 94 0.0 0.0 0.00 0.00 0.00 97 1014.4
20260906052552 77 94 0.0 0.0 0.00 0.00 0.00 97 1014.4
20260906052049 77 94 0.0 0.0 0.00 0.00 0.00 97 1014.4
20260906051545 77 102 0.0 0.0 0.00 0.00 0.00 97 1014.4
20260906051040 77 104 0.0 0.0 0.00 0.00 0.00 97 1014.4
20260906050535 77 94 0.0 0.0 0.00 0.00 0.00 97 1014.4
20260906050030 77 94 0.0 0.0 0.00 0.00 0.00 97 1014.5
20260906045528 77 94 0.0 0.0 0.00 0.00 0.00 96 1014.6
20260906045024 77 93 0.0 0.0 0.00 0.00 0.00 96 1014.6
20260906044519 77 95 0.0 0.0 0.00 0.00 0.00 96 1014.6
20260906044015 77 95 0.0 0.0 0.00 0.00 0.00 96 1014.4
20260906043510 77 97 0.0 0.0 0.00 0.00 0.00 96 1014.6
20260906043007 77 97 0.0 0.0 0.00 0.00 0.00 96 1014.7
20260906042505 77 93 0.0 0.0 0.00 0.00 0.00 96 1014.7
20260906042005 77 86 0.0 0.0 0.00 0.00 0.00 96 1014.6
20260906041502 77 84 0.0 0.0 0.00 0.00 0.00 96 1014.5
20260906041001 77 84 0.0 0.0 0.00 0.00 0.00 96 1014.6
20260906040456 78 84 0.0 0.0 0.00 0.00 0.00 95 1014.9
20260906035952 78 84 0.0 0.0 0.00 0.00 0.00 95 1014.8
20260906035447 78 84 0.0 0.0 0.00 0.00 0.00 95 1014.9
20260906034943 78 84 0.0 0.0 0.00 0.00 0.00 95 1015.0
20260906034442 78 84 0.0 0.0 0.00 0.00 0.00 95 1014.9
20260906033938 78 84 0.0 0.0 0.00 0.00 0.00 95 1014.9
20260906033438 78 85 0.0 0.0 0.00 0.00 0.00 95 1015.0
20260906032934 78 63 0.0 0.0 0.00 0.00 0.00 95 1015.1
20260906032431 78 86 0.0 0.0 0.00 0.00 0.00 95 1015.0
20260906031930 78 82 0.0 0.0 0.00 0.00 0.00 95 1015.1
20260906031426 78 79 0.0 0.0 0.00 0.00 0.00 95 1015.0
20260906030921 78 79 0.0 0.0 0.00 0.00 0.00 94 1015.1
20260906030416 78 74 0.0 0.0 0.00 0.00 0.00 94 1014.9
20260906025910 78 87 0.0 0.0 0.00 0.00 0.00 95 1014.8
20260906025404 78 87 0.0 0.0 0.00 0.00 0.00 94 1014.6
20260906024903 78 87 0.0 0.0 0.00 0.00 0.00 94 1014.7
20260906024402 78 87 0.0 0.0 0.00 0.00 0.00 93 1014.7
20260906023858 78 86 0.0 0.0 0.00 0.00 0.00 93 1014.7
20260906023355 78 86 0.0 0.0 0.00 0.00 0.00 93 1014.7
20260906022854 78 86 0.0 0.0 0.00 0.00 0.00 93 1014.6
20260906022349 78 86 0.0 0.0 0.00 0.00 0.00 93 1014.5
20260906021845 78 86 0.0 0.0 0.00 0.00 0.00 93 1014.4
20260906021344 78 86 0.0 0.0 0.00 0.00 0.00 93 1014.3
20260906020839 78 86 0.0 0.0 0.00 0.00 0.00 93 1014.2
20260906020338 78 86 0.0 0.0 0.00 0.00 0.00 93 1014.2
20260906015833 78 86 0.0 0.0 0.00 0.00 0.00 93 1014.2
20260906015333 79 90 0.0 0.0 0.00 0.00 0.00 93 1014.2
20260906014832 79 90 0.0 0.0 0.00 0.00 0.00 92 1014.2
20260906014327 79 88 0.0 0.0 0.00 0.00 0.00 92 1014.3
20260906013824 79 88 0.0 0.0 0.00 0.00 0.00 92 1014.4
20260906013319 79 88 0.0 0.0 0.00 0.00 0.00 92 1014.2
20260906012815 79 89 0.0 0.0 0.00 0.00 0.00 92 1014.3
20260906012314 80 98 0.0 0.0 0.00 0.00 0.00 92 1014.2
20260906011809 80 92 0.0 0.0 0.00 0.00 0.00 91 1014.4
20260906011309 80 109 0.0 0.0 0.00 0.00 0.00 90 1014.1
20260906010806 80 111 0.0 1.0 0.00 0.00 0.00 90 1014.1
20260906010301 80 105 0.0 0.0 0.00 0.00 0.00 92 1014.0
20260906005756 80 86 0.0 0.0 0.00 0.00 0.00 89 1014.0
20260906005255 80 86 0.0 0.0 0.00 0.00 0.00 89 1013.7
20260906004754 80 86 0.0 0.0 0.00 0.00 0.00 89 1013.5
20260906004250 81 95 0.0 0.0 0.00 0.00 0.00 89 1013.5
20260906003749 81 95 0.0 0.0 0.00 0.00 0.00 89 1013.5
20260906003245 82 95 0.0 0.0 0.00 0.00 0.00 89 1013.6
20260906002741 82 96 0.0 0.0 0.00 0.00 0.00 85 1013.7
20260906002240 82 98 0.0 0.0 0.00 0.00 0.00 84 1013.6
20260906001736 83 98 0.0 0.0 0.00 0.00 0.00 83 1013.7
20260906001231 83 98 0.0 0.0 0.00 0.00 0.00 83 1013.8
20260906000726 83 98 0.0 0.0 0.00 0.00 0.00 83 1014.0
20260906000226 83 98 0.0 0.0 0.00 0.00 0.00 83 1014.0
20260905235721 83 98 0.0 0.0 0.00 0.00 0.00 85 1014.0
20260905235215 84 98 0.0 0.0 0.00 0.00 0.00 81 1013.8
20260905234711 84 98 0.0 0.0 0.00 0.00 0.00 82 1014.2
20260905234206 85 98 0.0 0.0 0.00 0.00 0.00 82 1013.7
20260905233701 85 98 0.0 0.0 0.00 0.00 0.00 80 1013.8
20260905233201 85 100 0.0 0.0 0.00 0.00 0.00 79 1013.8
20260905232656 85 99 0.0 0.0 0.00 0.00 0.00 80 1013.7
20260905232152 86 102 0.0 0.0 0.00 0.00 0.00 77 1013.6
20260905231647 86 102 1.0 1.0 0.00 0.00 0.00 76 1013.8
20260905231143 87 102 0.0 0.0 0.00 0.00 0.00 76 1013.6
20260905230639 87 94 0.0 0.0 0.00 0.00 0.00 73 1013.8
20260905230137 87 95 0.0 1.0 0.00 0.00 0.00 71 1013.7
20260905225636 88 96 0.0 1.0 0.00 0.00 0.00 76 1013.7
20260905225137 87 64 0.0 1.0 0.00 0.00 0.00 69 1013.5
20260905224636 89 166 0.0 2.0 0.00 0.00 0.00 67 1013.7
20260905224136 89 88 0.0 3.0 0.00 0.00 0.00 69 1013.6
20260905223633 89 108 0.0 0.0 0.00 0.00 0.00 68 1013.5
20260905223129 88 69 0.0 0.0 0.00 0.00 0.00 67 1013.6
20260905222625 88 85 0.0 1.0 0.00 0.00 0.00 67 1013.6
20260905222119 89 172 2.0 3.0 0.00 0.00 0.00 70 1013.6
20260905221615 89 153 2.0 3.0 0.00 0.00 0.00 68 1013.7
20260905221111 89 11 2.0 6.0 0.00 0.00 0.00 65 1013.7
20260905220607 90 74 0.0 0.0 0.00 0.00 0.00 65 1014.0
20260905220103 90 96 0.0 2.0 0.00 0.00 0.00 64 1014.0
20260905215602 90 100 1.0 6.0 0.00 0.00 0.00 64 1013.8
20260905215058 89 105 0.0 3.0 0.00 0.00 0.00 64 1014.3
20260905214555 89 141 4.0 4.0 0.00 0.00 0.00 67 1014.1
20260905214054 90 88 0.0 1.0 0.00 0.00 0.00 63 1014.3
20260905213550 90 120 2.0 3.0 0.00 0.00 0.00 62 1014.3
20260905213045 90 78 1.0 4.0 0.00 0.00 0.00 61 1014.4
20260905212545 90 82 0.0 3.0 0.00 0.00 0.00 62 1014.5
20260905212045 90 161 2.0 3.0 0.00 0.00 0.00 61 1014.4
20260905211540 90 76 0.0 3.0 0.00 0.00 0.00 62 1014.7
20260905211036 89 140 2.0 2.0 0.00 0.00 0.00 62 1014.5
20260905210532 89 95 0.0 3.0 0.00 0.00 0.00 63 1014.5
20260905210032 89 59 0.0 2.0 0.00 0.00 0.00 65 1014.6
20260905205531 89 140 3.0 4.0 0.00 0.00 0.00 65 1014.5
20260905205030 90 132 0.0 2.0 0.00 0.00 0.00 62 1014.6
20260905204525 90 255 3.0 3.0 0.00 0.00 0.00 61 1014.7
20260905204021 89 220 1.0 4.0 0.00 0.00 0.00 62 1014.9
20260905203520 89 5 1.0 2.0 0.00 0.00 0.00 65 1014.8
20260905203016 90 39 1.0 3.0 0.00 0.00 0.00 66 1014.6
20260905202511 90 172 1.0 4.0 0.00 0.00 0.00 66 1014.8
20260905202006 89 107 1.0 2.0 0.00 0.00 0.00 66 1014.9
20260905201501 90 328 2.0 3.0 0.00 0.00 0.00 64 1015.0
20260905201001 90 105 1.0 2.0 0.00 0.00 0.00 65 1015.1
20260905200457 89 259 2.0 4.0 0.00 0.00 0.00 67 1014.9
20260905195955 89 90 0.0 4.0 0.00 0.00 0.00 67 1014.9
20260905195450 90 94 1.0 2.0 0.00 0.00 0.00 64 1015.1
20260905194946 90 113 3.0 3.0 0.00 0.00 0.00 65 1015.1
20260905194445 90 51 2.0 3.0 0.00 0.00 0.00 66 1015.0
20260905193940 91 60 1.0 3.0 0.00 0.00 0.00 63 1015.1
20260905193440 91 105 1.0 3.0 0.00 0.00 0.00 62 1015.1
20260905192936 91 345 0.0 3.0 0.00 0.00 0.00 64 1015.3
20260905192431 90 86 1.0 4.0 0.00 0.00 0.00 65 1015.2
20260905191926 89 114 1.0 2.0 0.00 0.00 0.00 64 1015.2
20260905191425 89 237 2.0 3.0 0.00 0.00 0.00 64 1015.3
20260905190920 90 74 1.0 3.0 0.00 0.00 0.00 64 1015.5
20260905190418 91 96 1.0 1.0 0.00 0.00 0.00 69 1015.6
20260905185916 90 84 0.0 2.0 0.00 0.00 0.00 68 1015.6
20260905185412 90 13 1.0 2.0 0.00 0.00 0.00 66 1015.7
20260905184911 89 240 2.0 3.0 0.00 0.00 0.00 68 1015.8
20260905184411 90 5 2.0 3.0 0.00 0.00 0.00 69 1015.8
20260905183909 89 170 2.0 3.0 0.00 0.00 0.00 69 1016.1
20260905183404 89 101 2.0 6.0 0.00 0.00 0.00 69 1016.2
20260905182859 89 198 2.0 3.0 0.00 0.00 0.00 68 1016.2
20260905182358 89 83 1.0 3.0 0.00 0.00 0.00 68 1016.3
20260905181855 88 350 2.0 3.0 0.00 0.00 0.00 70 1016.1
20260905181354 88 161 2.0 2.0 0.00 0.00 0.00 69 1016.5
20260905180853 89 149 1.0 1.0 0.00 0.00 0.00 73 1016.3
20260905180349 88 12 0.0 2.0 0.00 0.00 0.00 70 1016.6
20260905175843 89 66 1.0 2.0 0.00 0.00 0.00 71 1016.6
20260905175337 89 145 1.0 2.0 0.00 0.00 0.00 69 1016.7
20260905174832 89 92 0.0 1.0 0.00 0.00 0.00 69 1016.7
20260905174329 88 213 2.0 4.0 0.00 0.00 0.00 70 1016.6
20260905173824 89 27 1.0 4.0 0.00 0.00 0.00 70 1016.6
20260905173320 89 65 1.0 2.0 0.00 0.00 0.00 68 1016.7
20260905172820 89 158 2.0 2.0 0.00 0.00 0.00 71 1016.6
20260905172318 90 99 1.0 2.0 0.00 0.00 0.00 66 1016.7
20260905171814 89 129 2.0 6.0 0.00 0.00 0.00 68 1016.7
20260905171311 88 330 1.0 2.0 0.00 0.00 0.00 68 1016.7
20260905170807 88 104 0.0 2.0 0.00 0.00 0.00 71 1016.8
20260905170302 87 105 0.0 2.0 0.00 0.00 0.00 75 1017.1
20260905165801 87 84 0.0 1.0 0.00 0.00 0.00 71 1017.1
20260905165258 89 75 1.0 1.0 0.00 0.00 0.00 73 1016.9
20260905164752 87 85 0.0 1.0 0.00 0.00 0.00 73 1016.9
20260905164252 88 60 1.0 2.0 0.00 0.00 0.00 71 1017.0
20260905163748 89 95 0.0 1.0 0.00 0.00 0.00 71 1017.1
20260905163244 89 81 2.0 2.0 0.00 0.00 0.00 72 1017.2
20260905162740 90 83 0.0 3.0 0.00 0.00 0.00 73 1017.2
20260905162239 89 36 2.0 2.0 0.00 0.00 0.00 73 1017.2
20260905161734 87 98 0.0 2.0 0.00 0.00 0.00 76 1017.2
20260905161232 89 59 1.0 2.0 0.00 0.00 0.00 73 1017.5
20260905160732 88 87 0.0 1.0 0.00 0.00 0.00 74 1017.4
20260905160231 87 150 3.0 4.0 0.00 0.00 0.00 74 1017.3
20260905155727 88 93 1.0 3.0 0.00 0.00 0.00 77 1017.4
20260905155225 87 91 0.0 3.0 0.00 0.00 0.00 77 1017.5
20260905154719 87 45 1.0 3.0 0.00 0.00 0.00 77 1017.5
20260905154215 87 80 1.0 2.0 0.00 0.00 0.00 78 1017.5
20260905153710 86 102 1.0 2.0 0.00 0.00 0.00 77 1017.4
20260905153206 87 100 0.0 1.0 0.00 0.00 0.00 82 1017.3
20260905152701 86 118 0.0 1.0 0.00 0.00 0.00 84 1017.4
20260905152155 85 72 0.0 2.0 0.00 0.00 0.00 80 1017.4
20260905151650 85 122 2.0 2.0 0.00 0.00 0.00 81 1017.2
20260905151146 85 144 1.0 1.0 0.00 0.00 0.00 82 1017.3
20260905150641 84 90 0.0 1.0 0.00 0.00 0.00 83 1017.5
20260905150139 84 113 1.0 3.0 0.00 0.00 0.00 87 1017.4
20260905145638 81 83 0.0 0.0 0.00 0.00 0.00 88 1017.4
20260905145137 80 53 0.0 1.0 0.00 0.00 0.00 92 1017.6
20260905144632 79 71 0.0 1.0 0.00 0.00 0.00 96 1017.3
20260905144131 79 103 0.0 1.0 0.00 0.00 0.00 97 1017.6
20260905143626 78 98 0.0 0.0 0.00 0.00 0.00 97 1017.2
20260905143125 78 93 0.0 0.0 0.00 0.00 0.00 98 1017.2
20260905142624 78 95 0.0 0.0 0.00 0.00 0.00 99 1017.1
20260905142125 77 95 0.0 1.0 0.00 0.00 0.00 99 1017.1
20260905141624 77 95 0.0 1.0 0.00 0.00 0.00 99 1017.2
20260905141121 77 100 0.0 0.0 0.00 0.00 0.00 99 1017.2
20260905140616 77 106 0.0 0.0 0.00 0.00 0.00 99 1017.2
20260905140115 77 100 0.0 1.0 0.00 0.00 0.00 99 1017.2
20260905135610 77 94 0.0 1.0 0.00 0.00 0.00 99 1017.2
20260905135105 77 86 0.0 1.0 0.00 0.00 0.00 99 1017.2
20260905134600 76 100 0.0 1.0 0.00 0.00 0.00 99 1017.3
20260905134058 76 99 0.0 0.0 0.00 0.00 0.00 99 1017.2
20260905133555 76 94 0.0 0.0 0.00 0.00 0.00 99 1017.2
20260905133054 76 95 0.0 0.0 0.00 0.00 0.00 99 1017.2
20260905132554 75 95 0.0 0.0 0.00 0.00 0.00 99 1017.1
20260905132049 76 93 0.0 0.0 0.00 0.00 0.00 99 1017.1
20260905131544 75 86 0.0 0.0 0.00 0.00 0.00 99 1017.2
20260905131040 75 81 0.0 0.0 0.00 0.00 0.00 99 1017.2
20260905130538 75 61 0.0 0.0 0.00 0.00 0.00 99 1017.3
20260905130034 75 58 0.0 1.0 0.00 0.00 0.00 99 1017.1
20260905125533 75 71 0.0 1.0 0.00 0.00 0.00 99 1017.1
20260905125029 75 34 1.0 1.0 0.00 0.00 0.00 99 1016.9
20260905124525 75 67 0.0 0.0 0.00 0.00 0.00 99 1016.7
20260905124021 75 56 0.0 0.0 0.00 0.00 0.00 99 1016.7
20260905123517 75 78 0.0 0.0 0.00 0.00 0.00 99 1016.6
20260905123013 74 70 0.0 0.0 0.00 0.00 0.00 99 1016.7
20260905122507 75 70 0.0 0.0 0.00 0.00 0.00 99 1016.6
20260905122001 75 70 0.0 0.0 0.00 0.00 0.00 99 1016.6
20260905121457 74 69 0.0 0.0 0.00 0.00 0.00 99 1016.4
20260905120956 74 73 0.0 0.0 0.00 0.00 0.00 99 1016.5
20260905120450 74 68 0.0 0.0 0.00 0.00 0.00 99 1016.3
20260905115946 74 69 0.0 0.0 0.00 0.00 0.00 99 1016.4
20260905115445 74 72 0.0 0.0 0.00 0.00 0.00 99 1016.3
20260905114940 74 72 0.0 0.0 0.00 0.00 0.00 99 1016.4
20260905114440 74 74 0.0 0.0 0.00 0.00 0.00 99 1016.5
20260905113938 74 75 0.0 0.0 0.00 0.00 0.00 99 1016.3
20260905113434 74 75 0.0 0.0 0.00 0.00 0.00 99 1016.4
20260905112930 74 72 0.0 0.0 0.00 0.00 0.00 99 1016.2
20260905112425 74 72 0.0 0.0 0.00 0.00 0.00 99 1016.3
20260905111920 74 75 0.0 0.0 0.00 0.00 0.00 99 1016.3
20260905111420 74 72 0.0 0.0 0.00 0.00 0.00 99 1016.1